Kekaha, HI

7:33 PM HST on September 27, 2016 (GMT -1000)
Barking Sands PMRF

Weather History for PHBK - March, 2014

Change the Weather History Date:

Friday, March 21, 2014

  Actual Average Record
Temperature  
Mean Temperature 72 °F -  
Max Temperature 81 °F 81 °F 86 °F (1977)
Min Temperature 64 °F 61 °F 56 °F (1970)
Cooling Degree Days 8    
Growing Degree Days 22 (Base 50)    
Moisture  
Dew Point 61 °F    
Average Humidity 68    
Maximum Humidity 81    
Minimum Humidity 52    
Precipitation  
Precipitation 0.00 in - - ()
Sea Level Pressure  
Sea Level Pressure 30.05 in    
Wind  
Wind Speed 8 mph (NNE)    
Max Wind Speed 22 mph    
Max Gust Speed 32 mph    
Visibility 10 miles    
Events      
Averages and records for this station are not official NWS values.
T = Trace of Precipitation, MM = Missing Value Source: NWS Daily Summary

Daily Weather History Graph

Daily Weather History Graph

Search for Another Location

Airport or City:

Trip Planner

Search our weather history database for the weather conditions in past years. The results will help you decide how hot, cold, wet, or windy it might be!

Date:

Astronomy

Mar. 21, 2014 Rise Set
Actual Time 6:42 AM HST 6:50 PM HST
Civil Twilight 6:19 AM HST 7:12 PM HST
Nautical Twilight 5:53 AM HST 7:38 PM HST
Astronomical Twilight 5:27 AM HST 8:05 PM HST
Moon 11:48 PM HST (3/21) 10:15 AM HST (3/21)
Length of Visible Light 12h 53m
Length of Day
12h 08m
Waning Gibbous, 73% of the Moon is Illuminated
Mar 21
Waning Gibbous
Mar 23
Last Quarter
Mar 30
New
Apr 6
First Quarter
Apr 14
Full

Hourly Weather History & Observations

Time (HST) Temp. Heat Index Dew Point Humidity Pressure Visibility Wind Dir Wind Speed Gust Speed Precip Events Conditions
12:56 AM 69.1 °F - 60.1 °F 73% 30.07 in 10.0 mi East 4.6 mph - N/A   Mostly Cloudy
1:56 AM 68.0 °F - 62.1 °F 81% 30.06 in 10.0 mi NE 3.5 mph - N/A   Overcast
2:56 AM - - - N/A% 30.04 in 10.0 mi NNE 6.9 mph - N/A   Clear
3:56 AM - - - N/A% 30.03 in 10.0 mi NNE 9.2 mph - N/A   Partly Cloudy
4:56 AM 70.0 °F - 62.1 °F 76% 30.04 in 10.0 mi NE 8.1 mph - N/A   Overcast
5:56 AM 66.9 °F - 61.0 °F 81% 30.05 in 10.0 mi Calm Calm - N/A   Mostly Cloudy
6:56 AM 66.9 °F - 61.0 °F 81% 30.06 in 10.0 mi Calm Calm - N/A   Overcast
7:56 AM - - - N/A% 30.08 in 10.0 mi Calm Calm - N/A   Clear
8:56 AM 73.9 °F - 63.0 °F 68% 30.08 in 10.0 mi Calm Calm - N/A   Partly Cloudy
9:56 AM 77.0 °F - 63.0 °F 62% 30.08 in 10.0 mi North 18.4 mph - N/A   Partly Cloudy
10:56 AM 75.9 °F - 62.1 °F 62% 30.07 in 10.0 mi NNE 16.1 mph 27.6 mph N/A   Mostly Cloudy
11:56 AM 77.0 °F - 63.0 °F 62% 30.06 in 10.0 mi North 21.9 mph 28.8 mph N/A   Overcast
12:56 PM 80.1 °F 81.5 °F 63.0 °F 56% 30.04 in 10.0 mi North 19.6 mph 32.2 mph N/A   Scattered Clouds
1:56 PM 79.0 °F - 63.0 °F 58% 30.01 in 10.0 mi NNW 15.0 mph 29.9 mph N/A   Scattered Clouds
2:56 PM 81.0 °F 82.2 °F 63.0 °F 54% 30.00 in 10.0 mi North 18.4 mph 26.5 mph N/A   Scattered Clouds
3:56 PM 81.0 °F 81.9 °F 62.1 °F 52% 30.00 in 10.0 mi NNE 17.3 mph 25.3 mph N/A   Scattered Clouds
4:56 PM 77.0 °F - 63.0 °F 62% 30.00 in 10.0 mi North 15.0 mph 24.2 mph N/A   Mostly Cloudy
5:56 PM 75.9 °F - 60.1 °F 58% 30.02 in 10.0 mi North 13.8 mph - N/A   Mostly Cloudy
6:56 PM 73.0 °F - 62.1 °F 68% 30.04 in 10.0 mi North 17.3 mph 21.9 mph N/A   Partly Cloudy
7:56 PM 71.1 °F - 62.1 °F 73% 30.06 in 10.0 mi NNE 10.4 mph - N/A   Clear
8:56 PM 70.0 °F - 61.0 °F 73% 30.08 in 10.0 mi NNE 6.9 mph - N/A   Clear
9:56 PM 66.0 °F - 59.0 °F 78% 30.10 in 10.0 mi Calm Calm - N/A   Clear
10:56 PM 64.9 °F - 57.0 °F 75% 30.11 in 10.0 mi East 3.5 mph - N/A   Clear
11:56 PM 64.9 °F - 57.0 °F 75% 30.11 in 10.0 mi NE 3.5 mph - N/A   Clear